Weather History for Sussex, NJ

Change the Weather History Date:

Sunday, March 23, 2014

  Actual Average Record
Temperature  
Mean Temperature 32 °F -  
Max Temperature 39 °F 47 °F 75 °F (2012)
Min Temperature 24 °F 26 °F 12 °F (2004)
Degree Days  
Heating Degree Days 34    
Moisture  
Dew Point 14 °F    
Average Humidity 43    
Maximum Humidity 57    
Minimum Humidity 31    
Precipitation  
Precipitation 0.00 in - - ()
Sea Level Pressure  
Sea Level Pressure 30.05 in    
Wind  
Wind Speed 6 mph (NNW)    
Max Wind Speed 10 mph    
Max Gust Speed 22 mph    
Visibility 10 miles    
Events Rain    
Averages and records for this station are not official NWS values.
T = Trace of Precipitation, MM = Missing Value Source: NWS Daily Summary

Daily Weather History Graph

Daily Weather History Graph

Search for Another Location

Airport:

Trip Planner

Search our weather history database for the weather conditions in past years. The results will help you decide how hot, cold, wet, or windy it might be!

Date:

Astronomy

Mar. 23, 2014 Rise Set
Actual Time 6:56 AM EDT 7:13 PM EDT
Civil Twilight 6:29 AM EDT 7:41 PM EDT
Nautical Twilight 5:57 AM EDT 8:13 PM EDT
Astronomical Twilight 5:24 AM EDT 8:47 PM EDT
Moon 1:31 AM EDT (3/23) 11:32 AM EDT (3/23)
Length of Visible Light 13h 12m
Length of Day
12h 17m
Waning Gibbous, 55% of the Moon is Illuminated
Mar 23
Waning Gibbous
Mar 23
Last Quarter
Mar 30
New
Apr 7
First Quarter
Apr 15
Full

Hourly Weather History & Observations

Time (EDT) Temp. Windchill Dew Point Humidity Pressure Visibility Wind Dir Wind Speed Gust Speed Precip Events Conditions
12:53 AM 37.9 °F 35.5 °F 24.1 °F 57% 30.01 in 10.0 mi North 3.5 mph - N/A   Clear
1:53 AM 37.9 °F 34.4 °F 24.1 °F 57% 30.01 in 10.0 mi North 4.6 mph - N/A   Clear
2:53 AM 37.9 °F 35.5 °F 21.9 °F 53% 30.01 in 10.0 mi Variable 3.5 mph - N/A   Clear
3:53 AM 37.9 °F 34.4 °F 21.0 °F 51% 30.01 in 10.0 mi NW 4.6 mph - N/A   Clear
4:53 AM 37.9 °F - 19.9 °F 48% 30.01 in 10.0 mi Calm Calm - N/A   Clear
5:53 AM 37.0 °F 33.3 °F 19.0 °F 48% 30.03 in 10.0 mi NW 4.6 mph - N/A Rain Rain
6:53 AM 37.0 °F 34.5 °F 19.9 °F 50% 30.04 in 10.0 mi WNW 3.5 mph - N/A Rain Rain
7:53 AM 37.9 °F 31.5 °F 21.0 °F 51% 30.04 in 10.0 mi NNW 9.2 mph - N/A   Overcast
8:53 AM 37.0 °F 31.6 °F 21.9 °F 54% 30.05 in 10.0 mi North 6.9 mph - N/A   Mostly Cloudy
9:53 AM 37.9 °F 31.5 °F 19.9 °F 48% 30.07 in 10.0 mi North 9.2 mph - N/A   Mostly Cloudy
10:53 AM 37.9 °F 34.4 °F 18.0 °F 45% 30.07 in 10.0 mi Variable 4.6 mph - N/A   Clear
11:53 AM 37.9 °F 30.9 °F 14.0 °F 38% 30.06 in 10.0 mi NW 10.4 mph 18.4 mph N/A   Partly Cloudy
12:53 PM 37.9 °F 31.5 °F 10.0 °F 32% 30.06 in 10.0 mi WNW 9.2 mph - N/A   Mostly Cloudy
1:53 PM 37.0 °F 29.8 °F 9.0 °F 31% 30.04 in 10.0 mi NW 10.4 mph 19.6 mph N/A   Mostly Cloudy
2:53 PM 37.9 °F 31.5 °F 10.0 °F 32% 30.03 in 10.0 mi NNW 9.2 mph 21.9 mph N/A   Scattered Clouds
3:53 PM 37.0 °F 29.8 °F 10.9 °F 34% 30.02 in 10.0 mi WNW 10.4 mph 17.3 mph N/A   Mostly Cloudy
4:53 PM 37.0 °F 29.8 °F 9.0 °F 31% 30.02 in 10.0 mi North 10.4 mph - N/A   Scattered Clouds
5:53 PM 36.0 °F 31.1 °F 8.1 °F 31% 30.03 in 10.0 mi Variable 5.8 mph - N/A   Scattered Clouds
6:53 PM 34.0 °F 27.2 °F 8.1 °F 34% 30.05 in 10.0 mi NNW 8.1 mph - N/A   Clear
7:53 PM 30.9 °F 22.2 °F 7.0 °F 37% 30.08 in 10.0 mi North 10.4 mph - N/A   Clear
8:53 PM 28.9 °F 21.9 °F 7.0 °F 40% 30.10 in 10.0 mi NNW 6.9 mph - N/A   Clear
9:53 PM 28.0 °F 20.0 °F 6.1 °F 39% 30.12 in 10.0 mi North 8.1 mph - N/A   Clear
10:53 PM 26.1 °F 17.6 °F 3.9 °F 39% 30.15 in 10.0 mi NW 8.1 mph - N/A   Clear
11:53 PM 24.1 °F 17.0 °F 5.0 °F 44% 30.17 in 10.0 mi Variable 5.8 mph 19.6 mph N/A   Clear